• In Hungary
  • List of Countries
  • For 7 days
  • Water Temperature
  • Satellite Maps
  • Weather Map
  • News
  • Weather Widgets
  • user-avatar
    Login

    Hourly Weather Puke

    Today, 21 February, Wednesday

    Time Temperature Precipitation Wind Pressure Humidity
    00:00 +1°C° 0.3 mm 3 mps 682 mmHg 89%
    01:00 +1°C° 0.3 mm 3 mps 682 mmHg 88%
    02:00 +1°C° 0.4 mm 3 mps 682 mmHg 88%
    03:00 +2°C° 0.4 mm 2 mps 682 mmHg 88%
    04:00 +2°C° 0.4 mm 2 mps 682 mmHg 88%
    05:00 +2°C° 0.2 mm 2 mps 682 mmHg 88%
    06:00 +2°C° 0.2 mm 2 mps 682 mmHg 88%
    07:00 +1°C° 0 mm 3 mps 682 mmHg 86%
    08:00 +1°C° 0.2 mm 3 mps 683 mmHg 86%
    09:00 +2°C° 0.2 mm 3 mps 683 mmHg 86%
    10:00 +3°C° 0.2 mm 3 mps 683 mmHg 86%
    11:00 +3°C° 0.4 mm 3 mps 683 mmHg 86%
    12:00 +4°C° 0.4 mm 3 mps 683 mmHg 86%
    13:00 +4°C° 0 mm 3 mps 683 mmHg 86%
    14:00 +4°C° 0.8 mm 3 mps 683 mmHg 87%
    15:00 +3°C° 0.8 mm 3 mps 682 mmHg 87%
    16:00 +3°C° 0.8 mm 3 mps 682 mmHg 88%
    17:00 +3°C° 0.9 mm 3 mps 682 mmHg 88%
    18:00 +3°C° 0.9 mm 3 mps 682 mmHg 88%
    19:00 +2°C° 0.9 mm 3 mps 682 mmHg 88%
    20:00 +2°C° 1 mm 3 mps 683 mmHg 88%
    21:00 +2°C° 1 mm 3 mps 683 mmHg 88%
    22:00 +2°C° 1 mm 3 mps 683 mmHg 89%
    23:00 +2°C° 0.5 mm 3 mps 683 mmHg 89%

    Tomorrow, 22 February, Thursday

    Time Temperature Precipitation Wind Pressure Humidity
    00:00 +2°C° 0.5 mm 3 mps 683 mmHg 89%
    01:00 +2°C° 0.5 mm 3 mps 683 mmHg 89%
    02:00 +3°C° 0.7 mm 2 mps 683 mmHg 89%
    03:00 +3°C° 0.7 mm 2 mps 683 mmHg 90%
    04:00 +2°C° 0.7 mm 2 mps 683 mmHg 90%
    05:00 +2°C° 0.4 mm 2 mps 683 mmHg 90%
    06:00 +2°C° 0.4 mm 2 mps 683 mmHg 90%
    07:00 +2°C° 0.4 mm 2 mps 683 mmHg 89%
    08:00 +3°C° 0.1 mm 2 mps 684 mmHg 88%
    09:00 +4°C° 0.1 mm 2 mps 684 mmHg 86%
    10:00 +5°C° 0.1 mm 2 mps 684 mmHg 85%
    11:00 +6°C° 0 mm 2 mps 684 mmHg 82%
    12:00 +8°C° 0 mm 1 mps 684 mmHg 80%
    13:00 +8°C° 0 mm 1 mps 685 mmHg 77%
    14:00 +8°C° 0.1 mm 1 mps 685 mmHg 78%
    15:00 +8°C° 0.1 mm 1 mps 685 mmHg 79%
    16:00 +8°C° 0.1 mm 1 mps 685 mmHg 79%
    17:00 +7°C° 0.1 mm 1 mps 685 mmHg 81%
    18:00 +6°C° 0.1 mm 1 mps 685 mmHg 83%
    19:00 +4°C° 0.1 mm 2 mps 685 mmHg 85%
    20:00 +4°C° 0.1 mm 2 mps 685 mmHg 85%
    21:00 +4°C° 0.1 mm 2 mps 685 mmHg 85%
    22:00 +3°C° 0.1 mm 2 mps 686 mmHg 86%
    23:00 +3°C° 0 mm 2 mps 686 mmHg 85%

    Day after tomorrow, 23 February, Friday

    Time Temperature Precipitation Wind Pressure Humidity
    00:00 +3°C° 0 mm 2 mps 686 mmHg 85%
    01:00 +3°C° 0 mm 2 mps 686 mmHg 85%
    02:00 +3°C° 0.1 mm 2 mps 686 mmHg 86%
    03:00 +3°C° 0.1 mm 2 mps 685 mmHg 86%
    04:00 +3°C° 0.1 mm 2 mps 685 mmHg 86%
    05:00 +3°C° 0.1 mm 2 mps 685 mmHg 86%
    06:00 +3°C° 0.1 mm 2 mps 686 mmHg 86%
    07:00 +3°C° 0.1 mm 2 mps 686 mmHg 86%
    08:00 +4°C° 0 mm 2 mps 686 mmHg 84%
    09:00 +5°C° 0 mm 2 mps 686 mmHg 82%
    10:00 +6°C° 0 mm 2 mps 687 mmHg 80%
    11:00 +7°C° 0 mm 2 mps 687 mmHg 78%
    12:00 +8°C° 0 mm 2 mps 686 mmHg 75%
    13:00 +8°C° 0 mm 2 mps 686 mmHg 73%
    14:00 +8°C° 0 mm 2 mps 686 mmHg 74%
    15:00 +8°C° 0 mm 2 mps 686 mmHg 76%
    16:00 +8°C° 0 mm 2 mps 686 mmHg 77%
    17:00 +7°C° 0 mm 2 mps 686 mmHg 79%
    18:00 +5°C° 0 mm 3 mps 686 mmHg 82%
    19:00 +4°C° 0 mm 3 mps 687 mmHg 84%
    20:00 +3°C° 0 mm 3 mps 687 mmHg 84%
    21:00 +3°C° 0 mm 3 mps 687 mmHg 84%
    22:00 +3°C° 0 mm 3 mps 687 mmHg 84%
    23:00 +3°C° 0 mm 3 mps 687 mmHg 85%

    24 February, Saturday

    Time Temperature Precipitation Wind Pressure Humidity
    00:00 +2°C° 0 mm 3 mps 686 mmHg 85%
    01:00 +2°C° 0 mm 3 mps 686 mmHg 85%
    02:00 +2°C° 0 mm 3 mps 686 mmHg 85%
    03:00 +2°C° 0 mm 3 mps 686 mmHg 86%
    04:00 +2°C° 0 mm 3 mps 686 mmHg 86%
    05:00 +2°C° 0 mm 3 mps 686 mmHg 86%
    06:00 +2°C° 0 mm 3 mps 686 mmHg 86%
    07:00 +2°C° 0 mm 3 mps 686 mmHg 87%
    08:00 +3°C° 0 mm 3 mps 686 mmHg 84%
    09:00 +4°C° 0 mm 3 mps 686 mmHg 81%
    10:00 +5°C° 0 mm 3 mps 687 mmHg 78%
    11:00 +7°C° 0 mm 3 mps 687 mmHg 77%
    12:00 +7°C° 0 mm 3 mps 686 mmHg 75%
    13:00 +8°C° 0 mm 3 mps 686 mmHg 73%
    14:00 +8°C° 0 mm 3 mps 686 mmHg 74%
    15:00 +7°C° 0 mm 3 mps 686 mmHg 75%
    16:00 +7°C° 0 mm 2 mps 686 mmHg 76%
    17:00 +6°C° 0 mm 2 mps 686 mmHg 79%
    18:00 +5°C° 0 mm 2 mps 686 mmHg 82%
    19:00 +4°C° 0 mm 2 mps 686 mmHg 84%
    20:00 +4°C° 0 mm 2 mps 686 mmHg 85%
    21:00 +3°C° 0 mm 2 mps 686 mmHg 86%
    22:00 +3°C° 0 mm 2 mps 686 mmHg 86%
    23:00 +3°C° 0 mm 2 mps 686 mmHg 86%

    25 February, Sunday

    Time Temperature Precipitation Wind Pressure Humidity
    00:00 +2°C° 0 mm 2 mps 686 mmHg 86%
    01:00 +2°C° 0 mm 2 mps 686 mmHg 86%
    02:00 +1°C° 0.2 mm 3 mps 686 mmHg 86%
    03:00 0°C° 0.2 mm 3 mps 686 mmHg 86%
    04:00 0°C° 0.2 mm 3 mps 686 mmHg 85%
    05:00 0°C° 0.4 mm 3 mps 686 mmHg 84%
    06:00 0°C° 0.4 mm 3 mps 686 mmHg 83%
    07:00 -1°C° 0.4 mm 3 mps 686 mmHg 82%
    08:00 -1°C° 0.6 mm 3 mps 686 mmHg 82%
    09:00 -1°C° 0.6 mm 3 mps 686 mmHg 82%
    10:00 -1°C° 0.6 mm 3 mps 686 mmHg 82%
    11:00 0°C° 0.4 mm 3 mps 686 mmHg 81%
    12:00 0°C° 0.4 mm 3 mps 685 mmHg 80%
    13:00 0°C° 0.4 mm 3 mps 685 mmHg 79%
    14:00 +1°C° 0.1 mm 3 mps 685 mmHg 79%
    15:00 +2°C° 0.1 mm 2 mps 685 mmHg 78%
    16:00 +3°C° 0.1 mm 2 mps 685 mmHg 78%
    17:00 +1°C° 0.2 mm 3 mps 685 mmHg 80%
    18:00 0°C° 0.2 mm 3 mps 685 mmHg 81%
    19:00 -1°C° 0.2 mm 3 mps 685 mmHg 83%
    20:00 -2°C° 0.9 mm 3 mps 684 mmHg 84%
    21:00 -2°C° 0.9 mm 3 mps 684 mmHg 86%
    22:00 -3°C° 0.9 mm 4 mps 684 mmHg 87%
    23:00 -3°C° 1.2 mm 4 mps 684 mmHg 88%

    26 February, Monday

    Time Temperature Precipitation Wind Pressure Humidity
    00:00 -4°C° 1.2 mm 4 mps 683 mmHg 88%
    01:00 -4°C° 1.2 mm 4 mps 683 mmHg 89%
    02:00 -4°C° 1.1 mm 4 mps 682 mmHg 89%
    03:00 -4°C° 1.1 mm 4 mps 682 mmHg 89%
    04:00 -4°C° 1.1 mm 4 mps 681 mmHg 89%
    05:00 -4°C° 1.3 mm 4 mps 681 mmHg 89%
    06:00 -5°C° 1.3 mm 4 mps 681 mmHg 89%
    07:00 -5°C° 1.3 mm 4 mps 681 mmHg 90%
    08:00 -4°C° 1.2 mm 4 mps 681 mmHg 90%
    09:00 -4°C° 1.2 mm 4 mps 681 mmHg 90%
    10:00 -4°C° 1.2 mm 4 mps 681 mmHg 90%
    11:00 -2°C° 0.9 mm 3 mps 681 mmHg 91%
    12:00 -2°C° 0.9 mm 3 mps 681 mmHg 91%
    13:00 -2°C° 0.9 mm 3 mps 681 mmHg 92%
    14:00 -2°C° 0.5 mm 2 mps 681 mmHg 92%
    15:00 -1°C° 0.5 mm 2 mps 681 mmHg 92%
    16:00 -1°C° 0.5 mm 2 mps 681 mmHg 91%
    17:00 -2°C° 0.1 mm 2 mps 681 mmHg 91%
    18:00 -2°C° 0.1 mm 2 mps 681 mmHg 91%
    19:00 -3°C° 0.1 mm 2 mps 681 mmHg 91%
    20:00 -3°C° 0.3 mm 2 mps 681 mmHg 91%
    21:00 -3°C° 0.3 mm 2 mps 681 mmHg 91%
    22:00 -3°C° 0.3 mm 2 mps 681 mmHg 92%
    23:00 -2°C° 1.5 mm 3 mps 681 mmHg 93%
    Show more